Regional Weather Roundup
Issued by NWS

Home | Current Version | Previous Version | Graphics & Text | Print | Product List | Glossary On
Versions: 1 2 3 4 5 6 7 8 9 10 11 12 13 14 15 16 17 18 19 20 21 22 23 24 25 26 27 28 29 30 31 32 33 34 35 36 37 38 39 40 41 42 43 44 45 46 47 48 49 50
000
ASUS43 KMPX 161701
RWRMN
WEATHER ROUNDUP FOR MINNESOTA
NATIONAL WEATHER SERVICE TWIN CITIES/CHANHASSEN MN
1200 PM CDT WED AUG 16 2017


NOTE: "FAIR" INDICATES FEW OR NO CLOUDS BELOW 12,000 FEET WITH NO
SIGNIFICANT WEATHER AND/OR OBSTRUCTIONS TO VISIBILITY. N/A MEANS
CURRENT SKY AND/OR WEATHER CONDITIONS ARE NOT AVAILABLE.

MNZ060>063-068>070-161800-
   Twin Cities Metro

CITY           SKY/WX    TMP DP  RH WIND       PRES   REMARKS
TWIN CITIES    CLOUDY    71  64  78 SE9       29.88F
ST PAUL        CLOUDY    70  66  87 E10       29.89F
CRYSTAL        CLOUDY    70  62  76 SE9       29.87F
BLAINE         CLOUDY    72  68  88 SE8       29.89F
LAKEVILLE      CLOUDY    72  66  83 E7        29.88F
EDEN PRAIRIE   CLOUDY    71  65  81 E10       29.87F
SOUTH ST PAUL  CLOUDY    70  67  90 SE7       29.88F
LAKE ELMO      CLOUDY    70  64  83 SE9       29.91F
$$
MNZ001>005-007-008-013>017-022>024-027-028-161800-
   Northwest Minnesota

CITY           SKY/WX    TMP DP  RH WIND       PRES   REMARKS
BEMIDJI        CLOUDY    63  60  90 SE8       29.90S
HALLOCK        CLOUDY    66  63  88 E6        29.89S
ROSEAU         LGT RAIN  63  57  82 E8        29.91S
WARROAD        LGT RAIN  64  61  88 E9        29.91F
CROOKSTON      CLOUDY    66  64  94 S6        29.87S FOG
FOSSTON        CLOUDY    64  63  94 SE6       29.88S
DETROIT LAKES  CLOUDY    64  63  94 S6        29.89R
MOORHEAD       DRZL/FOG  66  64  94 SE3       29.86S VSB 1
PARK RAPIDS    CLOUDY    65  63  93 SE10      29.89S FOG
MAHNOMEN       RAIN      64  62  94 SE6       29.87S
$$
MNZ006-009>011-018-025>026-161800-
   North Central Minnesota

CITY           SKY/WX    TMP DP  RH WIND       PRES   REMARKS
BAUDETTE       CLOUDY    63  59  87 NE7       29.93S
FLAG ISLAND    LGT RAIN  64  61  88 CALM      29.93R
INTL FALLS     CLOUDY    71  57  61 SE12      29.94F
WASKISH        LGT RAIN  66  61  82 SE7       29.91S
BIG FORK       CLOUDY    70  57  64 SE9       29.93S
LONGVILLE      CLOUDY    63  61  94 SE5       29.90S
GRAND RAPIDS   CLOUDY    65  61  87 VRB7      29.95S
CRANE LAKE     CLOUDY    68  54  60 CALM      29.98F
ORR            CLOUDY    72  54  53 SE8       29.93F
COOK             N/A     72  57  60 S8        29.96S
WALKER         CLOUDY    63  61  92 SE7       29.90S FOG
$$
MNZ012-019>021-037-161800-
   Northeast Minnesota

CITY           SKY/WX    TMP DP  RH WIND       PRES   REMARKS
DULUTH         CLOUDY    63  57  81 E13       29.97F
ELY            MOSUNNY   70  50  49 E7        29.99S
HIBBING        CLOUDY    67  58  72 SE12      29.95F
EVELETH        PTSUNNY   71  56  57 SE12      29.97F
DULUTH HARBOR  CLOUDY    64  61  88 NE21      29.97F
SILVER BAY     SUNNY     66  57  72 E10G18    29.99F
GRAND MARAIS     N/A     63  57  81 E12       30.03S
$$
MNZ029>031-032-039>041-046>048-054>057-064-161800-
   West Central Minnesota

CITY           SKY/WX    TMP DP  RH WIND       PRES   REMARKS
FERGUS FALLS   DRIZZLE   66  66 100 SW6       29.86S
WHEATON        RAIN      68  64  88 CALM      29.86F
MORRIS         LGT RAIN  68  66  94 S7        29.85S
ALEXANDRIA     CLOUDY    66  65  96 S9        29.89S FOG
ELBOW LAKE     DRIZZLE   66  66  99 S6        29.86F
WADENA         CLOUDY    64  64 100 SE8       29.88R FOG
GLENWOOD       DRIZZLE   66  64  94 SE8       29.88S
APPLETON       DRIZZLE   70  66  88 E5        29.83F
BENSON         DRIZZLE   68  64  88 S5        29.86F
ORTONVILLE     LGT RAIN  66  64  94 MISG      29.83F
MADISON        RAIN      72  72 100 CALM      29.84S
WILLMAR        DRIZZLE   68  66  94 SE6       29.87F
$$
MNZ033>034-036-042>043-049>051-058-059-161800-
   Central Minnesota

CITY           SKY/WX    TMP DP  RH WIND       PRES   REMARKS
ST CLOUD       CLOUDY    67  66  97 E6        29.88F
SAUK CENTRE    CLOUDY    66  64  91 SE8       29.88S
PAYNESVILLE    CLOUDY    67  65  92 SE8       29.88S
AITKIN         CLOUDY    64  61  88 E7        29.90S
PINE RIVER     CLOUDY    61  61 100 SE6       29.93S FOG
BRAINERD       CLOUDY    65  62  90 SE10      29.90S
STAPLES        LGT RAIN  63  63 100 SE6       29.89S
LONG PRAIRIE   LGT RAIN  64  63  94 E7        29.89S
LITTLE FALLS   LGT RAIN  64  63  94 SE6       29.89S
LITCHFIELD     CLOUDY    70  66  88 SE9       29.87F
BUFFALO        CLOUDY    68  63  83 E8        29.89S
MAPLE LAKE     CLOUDY    69  66  90 SE6       29.89S
HUTCHINSON     CLOUDY    70  67  91 E7        29.87F
$$
MNZ037-044-045-052-053-161800-
   East Central Minnesota

CITY           SKY/WX    TMP DP  RH WIND       PRES   REMARKS
PRINCETON      CLOUDY    70  66  88 SE6       29.90S
MORA           LGT RAIN  64  63  94 E5        29.92F
RUSH CITY      CLOUDY    69  63  82 SE5       29.91F HAZE
MOOSE LAKE     CLOUDY    63  59  88 CALM      29.92F
HINCKLEY       CLOUDY    68  64  88 E5        29.92F
CLOQUET        CLOUDY    63  57  82 E12       29.96F
MCGREGOR       CLOUDY    63  61  94 E7        29.93S
$$
MNZ071>073-080-081-089-090-097-098-161800-
   Southwest Minnesota

CITY           SKY/WX    TMP DP  RH WIND       PRES   REMARKS
MONTEVIDEO     DRIZZLE   70  70 100 S5        29.84F
GRANITE FALLS  CLOUDY    71  67  88 SE5       29.86S
CANBY          DRIZZLE   69  67  93 CALM      29.85F
MARSHALL       LGT RAIN  69  67  93 NE3       29.84S
REDWOOD FALLS  CLOUDY    69  65  86 E10       29.84S FOG
OLIVIA         CLOUDY    70  66  88 SE6       29.85S
PIPESTONE      DRIZZLE   70  66  88 E7        29.83S
WINDOM         TSTM      66  64  94 E3        29.85S VSB 3/4
WORTHINGTON    RAIN      67  66  97 E15       29.82F FOG
JACKSON        TSTM      64  64 100 CALM      29.85S VSB 1/2
TRACY          DRIZZLE   71  68  91 E5        29.84F
SLAYTON        LGT RAIN  68  62  82 E5        29.85S
$$
MNZ065>067-074>077-082>085-091>093-161800-
   South Central Minnesota

CITY           SKY/WX    TMP DP  RH WIND       PRES   REMARKS
MANKATO        CLOUDY    71  67  87 SE9       29.86F
NEW ULM        CLOUDY    70  66  88 SE7       29.85S
ST JAMES       CLOUDY    68  66  94 E9        29.85F FOG
FAIRMONT       CLOUDY    70  67  90 SE9       29.84F
GLENCOE        CLOUDY    71  69  93 SE8       29.86F
FARIBAULT      CLOUDY    73  68  83 SE9       29.88F
OWATONNA       MOSUNNY   73  68  83 SE9       29.87F
WASECA         CLOUDY    72  68  88 SE7       29.88F
ALBERT LEA     CLOUDY    75  72  88 SE9       29.87F
$$
MNZ078>079-086>088-094>096-161800-
   Southeast Minnesota

CITY           SKY/WX    TMP DP  RH WIND       PRES   REMARKS
ROCHESTER      CLOUDY    75  68  78 SE14      29.90F
RED WING       PTSUNNY   75  63  64 SE13      29.88F
DODGE CENTER   CLOUDY    73  66  78 SE9       29.89F
WINONA         CLOUDY    77  63  61 E13       29.91F
AUSTIN         CLOUDY    75  68  78 SE9       29.87F
PRESTON        CLOUDY    76  65  69 SE10      29.91F
$$
ABBREVIATIONS USED IN REMARKS
   TC - TEMPERATURES IN CELSIUS
  WCI - WIND CHILL INDEX
   HX - HEAT INDEX
  VSB - VISIBILITY
$$




USA.gov is the U.S. government's official web portal to all federal, state and local government web resources and services.